Tracking 32579 objects as of 15-Dec-2025
HD Live streaming from Space Station
objects crossing your sky now

STARLINK-6148

Track STARLINK-6148 now!
10-day predictions
STARLINK-6148 is classified as:


NORAD ID: 57117
Int'l Code: 2023-090S
Perigee: 565.4 km
Apogee: 567.0 km
Inclination: 43.0 °
Period: 95.8 minutes
Semi major axis: 6937 km
RCS: Unknown
Launch date: June 23, 2023
Source: United States (US)
Launch site: AIR FORCE EASTERN TEST RANGE (AFETR)
Your satellite tracking list
Your tracking list is empty




NASA's NSSDC Master Catalog

Two Line Element Set (TLE):
1 57117U 23090S   25349.12227890  .00000692  00000-0  66277-4 0  9998
2 57117  43.0047  14.0476 0001190 270.2867  89.7839 15.02539362137681
Source of the keplerian elements: AFSPC